Weather History for KLKV - December, 2012

Change the Weather History Date:

Thursday, December 6, 2012

  Actual Average Record
Temperature  
Mean Temperature 36 °F -  
Max Temperature 42 °F 40 °F 56 °F (1929)
Min Temperature 28 °F 25 °F -3 °F (1932)
Degree Days  
Heating Degree Days 29    
Moisture  
Dew Point 31 °F    
Average Humidity 84    
Maximum Humidity 100    
Minimum Humidity 57    
Precipitation  
Precipitation 0.00 in - - ()
Sea Level Pressure  
Sea Level Pressure 30.12 in    
Wind  
Wind Speed 6 mph (South)    
Max Wind Speed 13 mph    
Max Gust Speed 17 mph    
Visibility 10 miles    
Events      
Averages and records for this station are not official NWS values.
T = Trace of Precipitation, MM = Missing Value Source: NWS Daily Summary

Daily Weather History Graph

Daily Weather History Graph

Search for Another Location

Airport or City:

Trip Planner

Search our weather history database for the weather conditions in past years. The results will help you decide how hot, cold, wet, or windy it might be!

Date:

Astronomy

Dec. 06, 2012 Rise Set
Actual Time 7:16 AM PST 4:29 PM PST
Civil Twilight 6:44 AM PST 5:01 PM PST
Nautical Twilight 6:09 AM PST 5:36 PM PST
Astronomical Twilight 5:35 AM PST 6:10 PM PST
Moon No Moon Rise 12:04 PM PST (12/6)
Length of Visible Light 10h 16m
Length of Day
9h 13m
Waning Gibbous, 48% of the Moon is Illuminated
Dec 6
Waning Gibbous
Dec 13
New
Dec 19
First Quarter
Dec 28
Full
Jan 4
Last Quarter

Hourly Weather History & Observations

Time (PST) Temp. Windchill Dew Point Humidity Pressure Visibility Wind Dir Wind Speed Gust Speed Precip Events Conditions
12:15 AM 35.6 °F 30.7 °F 33.8 °F 93% 30.13 in 10.0 mi SSE 5.8 mph - N/A   Overcast
12:35 AM 35.6 °F 29.9 °F 33.8 °F 93% 30.12 in 10.0 mi SSE 6.9 mph - N/A   Overcast
12:55 AM 35.6 °F 30.7 °F 33.8 °F 93% 30.12 in 10.0 mi SSE 5.8 mph - N/A   Overcast
1:15 AM 37.4 °F 33.8 °F 35.6 °F 93% 30.12 in 10.0 mi SW 4.6 mph - N/A   Overcast
1:35 AM 37.4 °F 31.4 °F 35.6 °F 93% 30.12 in 10.0 mi SSE 8.1 mph - N/A   Overcast
1:55 AM 37.4 °F 33.8 °F 35.6 °F 93% 30.12 in 10.0 mi South 4.6 mph - N/A   Overcast
2:15 AM 37.4 °F 33.8 °F 35.6 °F 93% 30.12 in 10.0 mi SSE 4.6 mph - N/A   Overcast
2:35 AM 37.4 °F 34.9 °F 35.6 °F 93% 30.12 in 10.0 mi SSW 3.5 mph - N/A   Overcast
2:55 AM 37.4 °F 32.8 °F 33.8 °F 87% 30.12 in 10.0 mi SW 5.8 mph - N/A   Overcast
3:15 AM 37.4 °F 32.8 °F 33.8 °F 87% 30.12 in 10.0 mi SSW 5.8 mph - N/A   Overcast
3:35 AM 37.4 °F 32.8 °F 33.8 °F 87% 30.10 in 10.0 mi South 5.8 mph - N/A   Overcast
3:55 AM 35.6 °F 31.7 °F 33.8 °F 93% 30.10 in 10.0 mi SSE 4.6 mph - N/A   Overcast
4:15 AM 33.8 °F 27.7 °F 32.0 °F 93% 30.09 in 10.0 mi SSE 6.9 mph - N/A   Partly Cloudy
4:35 AM 33.8 °F 28.6 °F 32.0 °F 93% 30.09 in 10.0 mi SSE 5.8 mph - N/A   Mostly Cloudy
4:55 AM 33.8 °F 26.4 °F 32.0 °F 93% 30.11 in 10.0 mi WSW 9.2 mph - N/A   Mostly Cloudy
5:15 AM 33.8 °F 30.8 °F 33.8 °F 100% 30.11 in 10.0 mi West 3.5 mph - N/A   Overcast
5:35 AM 35.6 °F 32.8 °F 33.8 °F 93% 30.10 in 10.0 mi SSW 3.5 mph - N/A   Overcast
5:55 AM 33.8 °F 27.0 °F 33.8 °F 100% 30.10 in 10.0 mi SW 8.1 mph - N/A   Overcast
6:15 AM 33.8 °F 28.6 °F 33.8 °F 100% 30.10 in 10.0 mi SW 5.8 mph - N/A   Mostly Cloudy
6:35 AM 33.8 °F - 33.8 °F 100% 30.10 in 10.0 mi Calm Calm - N/A   Mostly Cloudy
6:55 AM 32.0 °F - 32.0 °F 100% 30.11 in 10.0 mi Calm Calm - N/A   Partly Cloudy
7:15 AM 33.8 °F 30.8 °F 30.2 °F 87% 30.10 in 10.0 mi SE 3.5 mph - N/A   Mostly Cloudy
7:35 AM 32.0 °F 26.4 °F 30.2 °F 93% 30.11 in 10.0 mi SSE 5.8 mph - N/A   Mostly Cloudy
7:55 AM 32.0 °F 27.5 °F 30.2 °F 93% 30.10 in 10.0 mi SSW 4.6 mph - N/A   Scattered Clouds
8:15 AM 32.0 °F 25.6 °F 30.2 °F 93% 30.09 in 10.0 mi SSE 6.9 mph - N/A   Partly Cloudy
8:35 AM 33.8 °F - 32.0 °F 93% 30.11 in 10.0 mi Calm Calm - N/A   Scattered Clouds
8:55 AM 33.8 °F 30.8 °F 32.0 °F 93% 30.12 in 10.0 mi SSW 3.5 mph - N/A   Mostly Cloudy
9:15 AM 35.6 °F 31.7 °F 35.6 °F 100% 30.12 in 10.0 mi South 4.6 mph - N/A   Mostly Cloudy
9:35 AM 35.6 °F 31.7 °F 33.8 °F 93% 30.12 in 10.0 mi South 4.6 mph - N/A   Mostly Cloudy
9:55 AM 39.2 °F 33.0 °F 32.0 °F 75% 30.13 in 10.0 mi WSW 9.2 mph - N/A   Overcast
10:15 AM 39.2 °F 32.0 °F 32.0 °F 75% 30.13 in 10.0 mi WSW 11.5 mph - N/A   Overcast
10:35 AM 41.0 °F 33.9 °F 30.2 °F 65% 30.14 in 10.0 mi WSW 12.7 mph 17.3 mph N/A   Scattered Clouds
10:55 AM 41.0 °F 35.8 °F 30.2 °F 65% 30.13 in 10.0 mi West 8.1 mph - N/A   Partly Cloudy
11:15 AM 42.8 °F 36.6 °F 30.2 °F 61% 30.13 in 10.0 mi West 11.5 mph - N/A   Mostly Cloudy
11:35 AM 42.8 °F 36.6 °F 30.2 °F 61% 30.12 in 10.0 mi WSW 11.5 mph - N/A   Mostly Cloudy
11:55 AM 42.8 °F 36.6 °F 28.4 °F 57% 30.12 in 10.0 mi West 11.5 mph - N/A   Scattered Clouds
12:15 PM 42.8 °F 38.0 °F 28.4 °F 57% 30.11 in 10.0 mi SW 8.1 mph - N/A   Clear
12:35 PM 42.8 °F 37.5 °F 30.2 °F 61% 30.11 in 10.0 mi WSW 9.2 mph - N/A   Scattered Clouds
12:55 PM 42.8 °F 38.6 °F 30.2 °F 61% 30.09 in 10.0 mi SW 6.9 mph - N/A   Partly Cloudy
1:15 PM 42.8 °F 37.0 °F 30.2 °F 61% 30.09 in 10.0 mi South 10.4 mph - N/A   Partly Cloudy
1:35 PM 41.0 °F 34.7 °F 28.4 °F 61% 30.09 in 10.0 mi SSE 10.4 mph - N/A   Partly Cloudy
1:55 PM 42.8 °F 37.0 °F 30.2 °F 61% 30.09 in 10.0 mi South 10.4 mph - N/A   Mostly Cloudy
2:15 PM 42.8 °F 37.0 °F 30.2 °F 61% 30.09 in 10.0 mi South 10.4 mph - N/A   Mostly Cloudy
2:35 PM 41.0 °F 35.2 °F 30.2 °F 65% 30.09 in 10.0 mi South 9.2 mph - N/A   Mostly Cloudy
2:55 PM 39.2 °F 34.2 °F 30.2 °F 70% 30.10 in 10.0 mi South 6.9 mph - N/A   Partly Cloudy
3:15 PM 39.2 °F 33.0 °F 30.2 °F 70% 30.10 in 10.0 mi South 9.2 mph - N/A   Clear
3:35 PM 39.2 °F 35.9 °F 30.2 °F 70% 30.10 in 10.0 mi SW 4.6 mph - N/A   Clear
3:55 PM 39.2 °F 35.0 °F 28.4 °F 65% 30.10 in 10.0 mi SSW 5.8 mph - N/A   Clear
4:15 PM 37.4 °F 32.8 °F 28.4 °F 70% 30.10 in 10.0 mi South 5.8 mph - N/A   Clear
4:35 PM 37.4 °F 31.4 °F 26.6 °F 65% 30.10 in 10.0 mi South 8.1 mph - N/A   Clear
4:55 PM 37.4 °F 32.1 °F 26.6 °F 65% 30.11 in 10.0 mi SSW 6.9 mph - N/A   Clear
5:15 PM 35.6 °F 32.8 °F 28.4 °F 75% 30.12 in 10.0 mi SSW 3.5 mph - N/A   Clear
5:35 PM 32.0 °F - 26.6 °F 80% 30.13 in 10.0 mi Calm Calm - N/A   Clear
5:55 PM 30.2 °F 24.3 °F 26.6 °F 86% 30.13 in 10.0 mi SE 5.8 mph - N/A   Clear
6:35 PM 32.0 °F 23.6 °F 28.4 °F 87% 30.13 in 10.0 mi SE 10.4 mph - N/A   Clear
6:55 PM 33.8 °F 26.4 °F 30.2 °F 87% 30.13 in 10.0 mi SE 9.2 mph - N/A   Clear
7:15 PM 32.0 °F 23.0 °F 30.2 °F 93% 30.14 in 10.0 mi SSE 11.5 mph - N/A   Clear
7:35 PM 30.2 °F 21.9 °F 28.4 °F 93% 30.15 in 10.0 mi SSE 9.2 mph - N/A   Clear
7:55 PM 32.0 °F 24.8 °F 28.4 °F 87% 30.15 in 10.0 mi SSE 8.1 mph - N/A   Clear
8:15 PM 30.2 °F 22.6 °F 28.4 °F 93% 30.15 in 10.0 mi SSE 8.1 mph - N/A   Clear
8:35 PM 30.2 °F 23.4 °F 28.4 °F 93% 30.15 in 10.0 mi SSE 6.9 mph - N/A   Clear
8:55 PM 30.2 °F 22.6 °F 28.4 °F 93% 30.16 in 10.0 mi South 8.1 mph - N/A   Clear
9:15 PM 30.2 °F 24.3 °F 28.4 °F 93% 30.16 in 10.0 mi South 5.8 mph - N/A   Clear
9:35 PM 30.2 °F 22.6 °F 28.4 °F 93% 30.17 in 10.0 mi South 8.1 mph - N/A   Clear
9:55 PM 30.2 °F 23.4 °F 28.4 °F 93% 30.17 in 10.0 mi SSE 6.9 mph - N/A   Clear
10:15 PM 30.2 °F 23.4 °F 28.4 °F 93% 30.17 in 10.0 mi SSE 6.9 mph - N/A   Clear
10:35 PM 30.2 °F 22.6 °F 28.4 °F 93% 30.17 in 10.0 mi SSE 8.1 mph - N/A   Clear
10:55 PM 30.2 °F 21.9 °F 28.4 °F 93% 30.17 in 10.0 mi SSE 9.2 mph - N/A   Clear
11:15 PM 30.2 °F 22.6 °F 28.4 °F 93% 30.18 in 10.0 mi SSE 8.1 mph - N/A   Clear
11:35 PM 30.2 °F 22.6 °F 28.4 °F 93% 30.18 in 10.0 mi SSE 8.1 mph - N/A   Clear
11:55 PM 28.4 °F 22.2 °F 28.4 °F 100% 30.18 in 10.0 mi South 5.8 mph - N/A   Clear